Wind_Speed
17 19 19 19 19 19 19 17 16 14 14 15 17 17 17 17 16 14 13 12 10 9 9 10 10 11 12 13 15 16 17 17 18 18 19 19 19 20 20 20 20 19 19 18
18 19 20 19 17 19 18 17 16 15 14 16 18 18 18 17 16 15 14 13 12 11 11 11 11 11 13 14 15 16 16 17 18 18 19 19 19 20 20 21 21 20 19 18
17 19 19 16 16 18 18 17 16 15 15 18 18 18 18 18 17 16 15 14 13 13 12 12 12 12 13 14 14 15 16 17 18 18 19 20 20 20 20 21 21 20 20 19
19 19 17 14 16 17 17 16 16 15 16 17 18 19 19 19 18 17 17 16 15 14 13 13 13 13 14 14 14 15 16 17 18 19 19 20 21 21 21 21 21 20 20 20
19 18 15 14 16 17 16 15 16 16 17 18 19 19 19 19 19 18 18 17 16 15 15 14 14 14 14 14 15 15 16 17 18 19 20 21 22 22 22 22 22 21 21 20
20 19 15 14 17 17 16 14 17 18 18 18 19 18 19 21 20 19 18 18 17 17 16 16 15 15 15 15 15 16 16 17 18 19 21 22 23 23 23 23 22 22 21 21
22 21 17 17 19 18 17 16 19 19 19 19 19 20 21 21 21 20 20 19 19 18 18 17 17 16 16 16 16 16 17 18 19 20 21 23 24 24 23 23 23 22 22 21
26 24 20 20 20 21 20 21 21 21 21 21 21 22 22 22 22 22 22 21 21 20 19 18 18 17 17 17 17 17 18 19 20 21 22 23 24 24 24 24 24 23 22 22
29 27 25 25 25 25 24 23 23 23 23 22 22 23 23 23 23 23 23 22 22 21 20 20 19 19 18 18 18 18 19 20 21 22 23 24 25 25 25 25 25 24 24 23
33 31 30 29 29 29 28 27 26 25 25 25 24 24 24 25 25 24 24 24 23 23 22 22 21 20 20 20 19 20 21 22 23 23 24 25 26 26 26 26 26 26 25 24
38 35 35 34 33 33 32 31 30 29 28 27 27 26 26 26 26 26 26 25 25 24 24 23 23 22 22 21 21 21 22 23 24 25 26 27 27 28 28 27 27 27 26 25
42 40 41 39 37 37 36 35 34 33 32 31 30 29 29 29 28 28 27 27 26 26 26 25 25 24 24 23 23 23 24 24 25 26 27 28 29 29 29 29 28 27 27 26
47 46 46 44 42 41 41 39 39 38 36 34 34 33 32 31 31 30 29 29 28 28 28 27 26 26 25 25 25 25 26 26 27 28 29 30 31 31 31 31 30 29 28 27
50 50 50 48 47 46 45 44 43 41 40 38 37 36 35 34 33 32 31 31 30 30 29 29 28 28 27 27 27 27 28 28 29 30 31 32 32 33 33 33 32 31 30 29
52 53 53 51 50 50 49 48 46 44 43 42 41 39 38 37 36 35 34 34 33 32 32 31 31 30 30 30 30 30 30 31 31 32 33 34 34 34 34 34 34 33 32 31
54 55 55 54 53 52 51 51 49 47 46 45 44 43 42 41 40 39 38 37 36 35 34 34 33 33 33 33 33 33 33 34 34 35 35 36 36 36 36 35 35 34 33 33
55 55 55 55 55 54 53 52 51 50 49 47 46 46 45 45 43 42 41 40 39 38 38 37 37 36 36 36 36 36 36 37 37 37 37 38 38 38 38 37 37 36 35 34
54 54 54 54 55 55 54 54 53 52 51 50 50 49 48 47 47 45 44 44 43 42 41 41 40 40 40 39 39 39 39 40 40 40 40 40 40 40 40 39 38 37 36 35
52 51 51 52 53 54 54 54 54 54 53 52 52 52 50 50 49 49 48 47 46 45 45 45 44 43 43 43 42 42 42 43 43 43 43 43 42 42 41 40 39 38 37 37
47 47 48 48 49 50 52 52 53 53 54 54 53 54 53 52 52 51 51 50 49 49 49 48 47 47 46 46 46 45 45 45 45 45 45 45 44 44 43 42 41 40 39 39
43 44 45 46 47 48 49 51 52 52 53 54 54 54 54 54 54 54 54 54 53 52 52 51 50 49 49 49 48 48 48 48 47 47 47 46 46 45 44 43 42 41 40 40
41 42 42 44 46 48 49 49 50 51 51 52 53 54 54 55 56 56 56 56 56 55 54 53 52 52 51 50 50 49 49 49 49 48 48 48 47 46 45 44 42 42 41 41
40 40 41 42 44 45 47 48 49 50 51 51 52 52 53 53 55 55 56 55 55 55 55 55 54 53 52 52 51 51 50 50 49 49 49 49 48 46 45 44 43 42 42 41
40 41 42 42 43 43 44 46 47 47 48 50 51 52 52 53 53 53 54 55 55 54 54 54 54 54 53 52 52 51 51 50 49 49 49 48 47 46 45 44 43 43 42 42
40 41 41 40 41 41 41 43 45 47 48 48 49 50 50 51 52 53 53 53 54 54 54 53 53 52 52 52 51 51 50 50 50 49 48 47 46 45 44 43 43 42 42 42
40 40 40 39 40 40 41 42 43 44 46 47 47 48 48 49 50 51 51 51 51 51 51 51 51 51 51 50 50 50 49 48 47 46 46 45 44 44 43 42 42 42 42 42
39 38 38 37 38 38 39 39 40 41 42 44 45 45 46 47 47 48 48 48 48 48 48 48 48 48 48 47 47 47 46 46 46 45 44 44 43 43 42 42 42 42 42 42
Wind_Direction
263 264 264 264 264 264 263 261 258 249 240 232 230 227 226 228 231 234 238 246 255 267 283 296 307 317 325 331 336 340 343 346 347 349 350 351 351 352 352 352 351 351 350 349
266 266 266 266 265 263 259 256 254 245 236 232 230 229 229 231 234 236 240 247 256 266 279 290 300 310 319 326 332 336 340 343 345 347 348 349 349 349 349 349 348 347 347 346
270 268 269 268 263 260 256 254 253 244 235 233 231 230 230 233 236 239 243 248 255 265 276 285 294 304 314 322 327 332 337 340 342 343 344 345 346 346 347 347 346 345 344 343
273 270 269 267 260 259 256 253 251 244 239 237 235 234 234 237 239 242 245 249 256 264 273 281 290 299 308 315 322 328 332 336 338 341 342 343 343 343 343 344 343 342 342 341
274 272 270 265 261 258 256 250 249 244 240 239 239 239 240 241 242 244 247 252 258 265 271 279 286 294 302 309 315 322 327 331 333 337 339 340 341 340 340 340 340 339 337 337
273 272 267 261 261 260 257 250 248 246 242 242 241 242 241 242 244 246 249 254 260 265 270 276 282 290 296 302 309 315 321 325 329 332 334 336 337 338 338 337 336 336 336 334
269 269 265 260 260 258 256 250 247 248 247 247 246 244 243 245 246 248 251 255 260 264 268 273 279 285 290 296 303 309 315 320 324 327 329 332 334 334 335 334 333 333 332 331
266 266 264 259 258 256 254 251 250 249 249 250 249 247 247 248 248 250 252 256 259 263 267 271 276 281 285 291 298 303 309 315 319 323 326 328 329 330 330 330 330 329 328 327
262 263 261 258 256 254 253 251 251 251 250 249 249 249 249 249 250 252 254 257 259 262 265 269 273 277 281 287 293 299 305 310 314 319 322 325 326 327 326 326 326 325 324 322
259 259 257 256 255 254 253 251 250 250 250 249 249 248 249 250 251 253 255 257 259 261 264 268 271 274 278 283 288 294 300 306 311 315 318 321 322 324 324 323 322 321 320 318
258 257 255 254 254 253 252 252 250 250 250 250 250 250 250 251 252 254 255 257 259 260 263 266 268 271 275 279 284 291 297 303 308 312 314 317 319 320 321 320 319 318 317 315
257 254 253 251 251 252 252 251 250 249 249 250 250 250 250 251 252 253 254 256 258 259 262 264 266 269 273 277 282 288 294 299 304 308 311 313 315 316 317 317 316 314 313 312
256 254 253 252 250 250 250 250 250 250 249 249 249 249 249 250 251 252 253 255 257 258 260 262 264 267 271 275 280 286 291 296 300 304 307 309 311 312 313 314 313 312 310 309
255 255 253 252 251 250 249 249 248 249 249 249 249 249 249 249 250 251 253 254 255 257 259 261 263 266 270 274 279 284 288 293 297 301 304 306 308 309 310 311 311 310 308 306
255 254 254 252 250 250 249 249 248 248 249 249 249 249 249 249 250 251 252 254 255 257 258 261 263 266 270 274 278 282 286 290 294 298 301 303 304 305 306 307 308 307 306 304
256 255 254 252 251 249 249 248 248 247 248 248 248 248 249 249 249 250 252 253 255 257 259 261 264 267 270 274 278 281 285 289 292 295 298 300 301 302 303 304 304 304 303 302
257 255 254 253 251 250 248 248 248 247 246 247 247 248 248 249 250 251 252 253 255 257 259 261 264 267 271 274 277 280 284 287 290 293 296 298 299 300 301 301 301 301 301 300
259 257 255 254 252 250 249 247 247 246 246 245 245 247 248 249 250 250 251 253 254 256 258 261 264 267 270 273 276 279 282 286 288 291 293 295 297 297 298 299 298 298 298 297
258 257 256 254 252 250 249 248 246 246 245 245 245 245 247 249 249 250 251 253 254 256 258 261 263 266 269 272 275 278 281 284 287 289 291 293 295 296 296 296 296 295 295 295
259 257 256 254 253 251 249 247 246 245 245 244 245 245 245 247 248 250 251 253 254 256 258 261 263 266 269 272 275 277 280 283 285 287 289 292 293 294 294 294 293 293 293 293
257 255 254 253 251 250 249 247 246 245 245 244 244 245 245 246 247 249 251 252 254 257 259 261 264 266 269 271 273 276 279 281 283 286 288 290 291 292 292 292 291 291 292 292
256 255 254 253 251 249 249 247 246 245 244 245 244 244 246 247 247 248 250 252 254 256 259 261 263 265 268 270 272 275 277 279 281 283 286 288 289 290 290 290 290 290 291 291
257 256 256 255 253 251 249 248 245 244 244 244 245 245 245 246 248 249 250 252 254 256 258 260 262 265 267 269 271 274 276 278 280 282 284 286 287 287 288 288 288 289 290 290
259 259 259 258 256 253 251 248 246 245 244 245 245 245 245 246 247 248 249 250 252 255 257 259 261 264 266 267 269 272 274 276 278 281 282 284 285 285 285 286 287 288 289 289
263 262 261 259 257 254 252 249 248 247 246 246 246 245 245 245 247 248 250 252 253 255 257 259 261 263 264 266 269 271 273 275 276 278 280 282 283 283 284 285 286 287 288 289
266 265 263 261 259 257 254 252 250 248 248 248 247 246 245 246 247 248 250 251 253 255 257 258 260 261 263 265 267 269 272 274 275 277 278 279 280 281 282 284 285 286 288 289
267 265 264 262 260 258 255 254 252 249 248 248 248 248 247 247 248 249 251 252 254 255 257 259 260 261 263 264 265 268 269 271 272 274 275 277 278 279 281 283 285 287 288 289
Height
5810 5810 5810 5810 5810 5810 5810 5810 5811 5812 5813 5814 5815 5816 5818 5819 5821 5822 5823 5824 5824 5824 5824 5823 5822 5821 5819 5818 5816 5813 5811 5808 5805 5802 5799 5796 5792 5789 5785 5782 5778 5774 5771 5768
5806 5806 5805 5805 5806 5805 5805 5806 5807 5808 5810 5810 5811 5812 5814 5816 5817 5818 5819 5820 5821 5821 5820 5820 5819 5818 5817 5815 5813 5811 5808 5806 5803 5800 5797 5794 5791 5787 5784 5780 5776 5773 5769 5766
5802 5801 5800 5802 5802 5801 5801 5802 5803 5804 5806 5806 5807 5809 5810 5812 5813 5815 5816 5817 5817 5817 5817 5817 5816 5815 5814 5812 5810 5808 5806 5803 5801 5798 5795 5792 5788 5785 5782 5778 5774 5771 5767 5764
5797 5798 5797 5801 5797 5797 5797 5798 5799 5800 5802 5802 5804 5805 5807 5808 5810 5811 5812 5813 5813 5813 5813 5813 5812 5811 5810 5809 5807 5805 5803 5801 5798 5795 5792 5789 5786 5782 5779 5775 5772 5768 5765 5762
5793 5792 5793 5795 5793 5792 5793 5795 5795 5796 5797 5798 5800 5801 5803 5804 5805 5806 5807 5808 5809 5809 5809 5809 5808 5807 5806 5805 5804 5802 5800 5797 5795 5792 5789 5786 5783 5779 5776 5772 5769 5766 5762 5759
5788 5787 5789 5791 5789 5788 5790 5792 5791 5791 5793 5794 5795 5797 5799 5799 5800 5802 5803 5804 5804 5804 5804 5804 5804 5803 5802 5801 5800 5798 5796 5794 5791 5789 5786 5783 5779 5776 5772 5769 5766 5762 5759 5755
5782 5782 5784 5785 5784 5784 5787 5787 5786 5787 5788 5789 5790 5792 5793 5794 5795 5796 5797 5798 5799 5799 5799 5799 5799 5798 5797 5796 5795 5794 5792 5790 5787 5785 5782 5779 5776 5772 5769 5765 5762 5759 5755 5752
5775 5776 5780 5779 5778 5779 5779 5780 5780 5781 5782 5784 5785 5786 5787 5788 5789 5791 5792 5793 5793 5793 5793 5793 5793 5793 5792 5791 5790 5789 5787 5785 5783 5780 5778 5775 5771 5768 5765 5762 5758 5755 5751 5748
5769 5772 5772 5771 5771 5771 5772 5773 5774 5775 5776 5777 5778 5779 5781 5782 5783 5784 5785 5786 5787 5787 5787 5787 5787 5787 5787 5786 5785 5783 5782 5780 5778 5775 5773 5770 5767 5763 5760 5757 5754 5750 5747 5744
5760 5762 5763 5763 5763 5763 5765 5766 5767 5767 5769 5770 5771 5772 5774 5775 5776 5777 5778 5779 5780 5780 5781 5781 5781 5781 5780 5780 5779 5778 5776 5774 5772 5770 5767 5764 5761 5758 5755 5752 5748 5745 5742 5738
5748 5752 5752 5753 5753 5754 5756 5757 5758 5760 5761 5762 5763 5765 5766 5767 5769 5770 5771 5772 5773 5773 5774 5774 5774 5774 5774 5773 5772 5771 5770 5768 5766 5764 5761 5758 5756 5753 5750 5746 5743 5740 5736 5733
5736 5739 5738 5742 5743 5744 5746 5747 5749 5750 5752 5754 5755 5756 5758 5759 5760 5762 5763 5764 5765 5765 5766 5766 5767 5767 5767 5766 5765 5765 5763 5762 5760 5757 5755 5752 5749 5746 5743 5740 5737 5734 5730 5727
5721 5723 5724 5728 5731 5732 5733 5736 5738 5740 5742 5744 5746 5747 5749 5750 5752 5753 5754 5755 5756 5757 5757 5758 5758 5759 5759 5758 5758 5757 5756 5754 5752 5750 5748 5745 5742 5739 5736 5733 5730 5727 5724 5721
5705 5707 5709 5713 5716 5719 5720 5723 5725 5728 5731 5733 5735 5737 5739 5740 5742 5743 5745 5746 5747 5748 5749 5749 5750 5750 5750 5750 5750 5749 5748 5747 5745 5743 5740 5737 5734 5731 5728 5725 5722 5719 5716 5713
5689 5690 5693 5697 5700 5703 5706 5709 5712 5716 5719 5721 5723 5725 5728 5730 5731 5733 5734 5736 5737 5738 5739 5740 5741 5741 5741 5741 5741 5740 5739 5738 5736 5734 5732 5729 5726 5723 5720 5717 5714 5710 5708 5705
5672 5673 5675 5679 5683 5686 5690 5693 5696 5701 5704 5707 5710 5713 5715 5717 5719 5721 5723 5725 5727 5728 5729 5730 5731 5731 5731 5732 5731 5731 5730 5728 5727 5725 5723 5720 5717 5714 5711 5708 5705 5702 5699 5696
5653 5655 5658 5661 5665 5669 5673 5676 5680 5684 5688 5692 5695 5698 5701 5703 5706 5709 5711 5713 5715 5716 5718 5719 5720 5720 5721 5721 5721 5720 5719 5718 5717 5715 5713 5710 5707 5705 5702 5699 5696 5692 5689 5687
5634 5637 5640 5643 5647 5651 5655 5659 5663 5667 5672 5676 5679 5683 5686 5689 5693 5695 5698 5700 5702 5704 5705 5707 5708 5709 5709 5709 5709 5709 5708 5707 5705 5704 5702 5699 5697 5694 5691 5688 5685 5682 5680 5677
5615 5619 5622 5625 5629 5634 5638 5642 5646 5650 5655 5659 5663 5667 5671 5675 5677 5680 5683 5686 5688 5690 5692 5693 5695 5696 5697 5697 5697 5697 5696 5695 5694 5692 5690 5688 5685 5683 5680 5677 5674 5672 5669 5667
5599 5602 5605 5609 5612 5616 5620 5625 5629 5633 5638 5642 5646 5650 5655 5659 5662 5665 5668 5671 5674 5676 5678 5680 5682 5683 5684 5684 5684 5684 5683 5683 5681 5680 5678 5676 5673 5671 5668 5665 5663 5660 5658 5655
5585 5587 5590 5593 5596 5600 5603 5607 5612 5617 5621 5625 5630 5634 5638 5642 5646 5649 5652 5656 5659 5661 5663 5666 5667 5669 5670 5670 5671 5671 5670 5669 5668 5667 5665 5663 5661 5658 5656 5653 5651 5648 5646 5643
5571 5573 5576 5578 5581 5585 5588 5591 5595 5600 5604 5609 5613 5617 5621 5626 5630 5633 5636 5640 5642 5645 5648 5651 5653 5654 5655 5656 5657 5657 5656 5656 5655 5653 5652 5650 5648 5645 5643 5641 5638 5636 5634 5631
5558 5560 5562 5564 5566 5569 5573 5576 5580 5584 5589 5593 5597 5601 5605 5609 5613 5617 5621 5624 5627 5630 5633 5635 5637 5639 5640 5641 5642 5642 5642 5641 5641 5640 5638 5636 5634 5632 5630 5628 5626 5624 5621 5619
5546 5547 5549 5551 5553 5556 5559 5562 5565 5569 5573 5577 5581 5586 5590 5593 5597 5601 5605 5608 5612 5615 5617 5620 5622 5624 5625 5626 5627 5627 5627 5627 5626 5625 5624 5623 5621 5619 5617 5615 5613 5611 5609 5606
5533 5535 5536 5538 5540 5542 5545 5548 5551 5555 5558 5562 5566 5570 5574 5578 5583 5586 5590 5593 5596 5599 5602 5604 5606 5608 5610 5611 5612 5612 5612 5612 5612 5611 5610 5609 5607 5606 5604 5602 5600 5598 5596 5594
5521 5523 5524 5526 5528 5530 5532 5535 5538 5541 5545 5548 5552 5556 5560 5564 5568 5571 5575 5578 5581 5584 5587 5589 5591 5593 5595 5596 5597 5598 5598 5598 5597 5597 5596 5595 5594 5592 5591 5590 5588 5586 5584 5581
5510 5511 5512 5514 5516 5518 5520 5523 5526 5529 5532 5536 5539 5542 5546 5550 5554 5557 5561 5564 5567 5570 5572 5575 5577 5578 5580 5581 5582 5583 5583 5583 5583 5583 5582 5582 5581 5580 5578 5577 5575 5573 5571 5568